User: anonymous   Login
Location: Dumpton Point
(51.3500°N, 1.4433°E)
Time: 21:14:42
(UTC+00:00)
Language:

Cosmos 1346 Rocket - Orbit

View from above orbital plane
View from above orbital plane
View from above satellite
View from above satellite

Ground track
Ground track

The orbit data is extracted from the following two-line orbital elements,

1 13121U 82027B   20185.07633604  .00000831  00000-0  51169-4 0  9990
2 13121  81.1673 281.1919 0013069  64.3227 295.9346 15.08908829 84639
Epoch (UTC): 03 July 2020 01:49:55
Eccentricity: 0.0013069
inclination: 81.1673°
perigee height: 530 km
apogee height: 548 km
right ascension of ascending node: 281.1919°
argument of perigee: 64.3227°
revolutions per day: 15.08908829
mean anomaly at epoch: 295.9346°
orbit number at epoch: 8463

The dashed part of the orbit path shows where the satellite is in the earth's shadow,  

DLR